Weather History for Rome, NY

Change the Weather History Date:

Monday, July 1, 2013

  Actual Average Record
Temperature  
Mean Temperature 70 °F -  
Max Temperature 73 °F 77 °F 91 °F (2014)
Min Temperature 68 °F 53 °F 45 °F (1986)
Cooling Degree Days 6    
Growing Degree Days 20 (Base 50)    
Moisture  
Dew Point 67 °F    
Average Humidity 89    
Maximum Humidity 96    
Minimum Humidity 81    
Precipitation  
Precipitation 1.05 in - - ()
Sea Level Pressure  
Sea Level Pressure 29.96 in    
Wind  
Wind Speed 4 mph (East)    
Max Wind Speed 14 mph    
Max Gust Speed -    
Visibility 9 miles    
Events Rain    
Averages and records for this station are not official NWS values.
T = Trace of Precipitation, MM = Missing Value Source: NWS Daily Summary

Daily Weather History Graph

Daily Weather History Graph

Search for Another Location

Airport:

Trip Planner

Search our weather history database for the weather conditions in past years. The results will help you decide how hot, cold, wet, or windy it might be!

Date:

Astronomy

Jul. 01, 2013 Rise Set
Actual Time 5:25 AM EDT 8:45 PM EDT
Civil Twilight 4:50 AM EDT 9:20 PM EDT
Nautical Twilight 4:04 AM EDT 10:06 PM EDT
Astronomical Twilight 3:07 AM EDT 11:03 PM EDT
Moon 1:00 AM EDT (7/1) 2:52 PM EDT (7/1)
Length of Visible Light 16h 30m
Length of Day
15h 19m
Waning Crescent, 35% of the Moon is Illuminated
Jul 1
Waning Crescent
Jul 8
New
Jul 15
First Quarter
Jul 22
Full
Jul 29
Last Quarter

Hourly Weather History & Observations

Time (EDT) Temp. Dew Point Humidity Pressure Visibility Wind Dir Wind Speed Gust Speed Precip Events Conditions
12:53 AM 70.0 °F 66.9 °F 90% 29.91 in 10.0 mi ESE 3.5 mph - N/A   Scattered Clouds
1:53 AM 69.1 °F 66.9 °F 93% 29.92 in 10.0 mi Calm Calm - N/A   Partly Cloudy
2:53 AM 68.0 °F 66.9 °F 96% 29.91 in 10.0 mi NNE 3.5 mph - N/A   Mostly Cloudy
3:51 AM 68.0 °F 66.2 °F 94% 29.92 in 10.0 mi ESE 3.5 mph - N/A   Mostly Cloudy
3:53 AM 68.0 °F 66.0 °F 93% 29.91 in 10.0 mi ESE 3.5 mph - N/A   Mostly Cloudy
4:32 AM 68.0 °F 66.0 °F 93% 29.92 in 10.0 mi Calm Calm - N/A   Partly Cloudy
4:53 AM 68.0 °F 66.0 °F 93% 29.92 in 10.0 mi Calm Calm - N/A   Scattered Clouds
5:22 AM 68.0 °F 66.0 °F 93% 29.95 in 10.0 mi SE 3.5 mph - N/A   Mostly Cloudy
5:53 AM 68.0 °F 66.0 °F 93% 29.94 in 10.0 mi NNE 4.6 mph - N/A   Overcast
6:09 AM 68.0 °F 66.0 °F 93% 29.95 in 10.0 mi NNE 3.5 mph - N/A   Overcast
6:28 AM 68.0 °F 66.0 °F 93% 29.96 in 10.0 mi Calm Calm - N/A   Overcast
6:50 AM 69.8 °F 66.2 °F 88% 29.96 in 10.0 mi East 3.5 mph - 0.00 in Rain Light Rain
6:53 AM 69.1 °F 66.0 °F 90% 29.95 in 10.0 mi Calm Calm - 0.00 in Rain Light Rain
7:53 AM 71.1 °F 66.0 °F 84% 29.96 in 10.0 mi East 3.5 mph - 0.00 in   Overcast
8:53 AM 72.0 °F 66.0 °F 81% 29.96 in 10.0 mi East 4.6 mph - N/A   Mostly Cloudy
9:08 AM 72.0 °F 66.9 °F 84% 29.98 in 10.0 mi East 4.6 mph - N/A   Scattered Clouds
9:20 AM 73.0 °F 66.9 °F 81% 29.98 in 10.0 mi East 6.9 mph - N/A   Mostly Cloudy
9:53 AM 72.0 °F 66.9 °F 84% 29.97 in 10.0 mi East 8.1 mph - N/A   Overcast
10:16 AM 72.0 °F 66.9 °F 84% 29.98 in 10.0 mi ESE 6.9 mph - N/A   Overcast
10:51 AM 73.4 °F 68.0 °F 83% 29.98 in 10.0 mi ESE 5.8 mph - N/A   Overcast
10:53 AM 73.0 °F 68.0 °F 84% 29.97 in 10.0 mi ESE 8.1 mph - N/A   Overcast
11:53 AM 73.9 °F 68.0 °F 82% 29.98 in 10.0 mi ESE 9.2 mph - 0.00 in   Overcast
12:02 PM 73.0 °F 66.9 °F 81% 29.98 in 10.0 mi ESE 8.1 mph - 0.00 in Rain Light Rain
12:28 PM 73.0 °F 66.9 °F 81% 29.98 in 10.0 mi East 8.1 mph - 0.00 in Rain Light Rain
12:53 PM 72.0 °F 68.0 °F 87% 29.97 in 10.0 mi ENE 5.8 mph - 0.01 in Rain Light Rain
1:53 PM 73.0 °F 69.1 °F 87% 29.97 in 10.0 mi Calm Calm - 0.04 in Rain Light Rain
2:14 PM 73.0 °F 70.0 °F 90% 29.98 in 10.0 mi Calm Calm - 0.01 in Rain Light Rain
2:29 PM 73.0 °F 69.1 °F 87% 29.98 in 10.0 mi Calm Calm - 0.01 in Rain Light Rain
2:53 PM 73.0 °F 70.0 °F 90% 29.96 in 7.0 mi North 3.5 mph - 0.04 in Rain Rain
3:07 PM 73.0 °F 70.0 °F 90% 29.97 in 10.0 mi Calm Calm - 0.01 in Rain Light Rain
3:53 PM 73.0 °F 70.0 °F 90% 29.95 in 10.0 mi NE 4.6 mph - 0.10 in Rain Rain
4:53 PM 72.0 °F 70.0 °F 93% 29.94 in 4.0 mi NE 5.8 mph - 0.21 in Rain Heavy Rain
5:04 PM 72.0 °F 70.0 °F 93% 29.94 in 5.0 mi NNE 8.1 mph - 0.04 in Rain Heavy Rain
5:53 PM 70.0 °F 68.0 °F 93% 29.94 in 5.0 mi Variable 6.9 mph - 0.39 in Rain Rain
6:20 PM 70.0 °F 68.0 °F 93% 29.95 in 2.0 mi NE 13.8 mph - 0.25 in Rain Heavy Rain
6:30 PM 71.1 °F 68.0 °F 90% 29.95 in 8.0 mi NNE 10.4 mph - 0.26 in Rain Light Rain
6:53 PM 71.1 °F 68.0 °F 90% 29.94 in 10.0 mi NE 6.9 mph - 0.26 in Rain Light Rain
7:04 PM 71.1 °F 68.0 °F 90% 29.96 in 10.0 mi East 6.9 mph - 0.00 in Rain Light Rain
7:53 PM 71.1 °F 68.0 °F 90% 29.96 in 10.0 mi East 5.8 mph - 0.00 in   Overcast
8:53 PM 70.0 °F 66.9 °F 90% 29.97 in 10.0 mi East 9.2 mph - 0.00 in Rain Light Rain
9:23 PM 70.0 °F 66.9 °F 90% 29.99 in 10.0 mi East 5.8 mph - 0.00 in   Overcast
9:53 PM 70.0 °F 66.9 °F 90% 29.99 in 10.0 mi East 4.6 mph - 0.00 in   Mostly Cloudy
10:53 PM 69.1 °F 66.9 °F 93% 29.99 in 10.0 mi Calm Calm - N/A   Scattered Clouds
11:04 PM 70.0 °F 68.0 °F 93% 30.00 in 10.0 mi ESE 3.5 mph - N/A   Mostly Cloudy
11:53 PM 70.0 °F 68.0 °F 93% 30.00 in 10.0 mi Calm Calm - N/A   Overcast